Regional Weather Roundup
Issued by NWS

Home | Current Version | Previous Version | Text Only | Print | Product List | Glossary Off
Versions: 1 2 3 4 5 6 7 8 9 10 11 12 13 14 15 16 17 18 19 20 21 22 23 24 25 26 27 28 29 30 31 32 33 34 35 36 37 38 39 40 41 42 43 44 45 46 47 48 49 50

000
ASUS45 KABQ 181310
RWRNM
WEATHER ROUNDUP FOR NEW MEXICO
NATIONAL WEATHER SERVICE ALBUQUERQUE NM
700 AM MDT THU SEP 18 2014

NOTE: "FAIR" MEANS FEW OR NO CLOUDS BELOW 12,000 FEET AGL WITH NO
       SIGNIFICANT WEATHER OR OBSTRUCTIONS TO VISION.

      THIS PRODUCT IS RELEASED AS TWO VERSIONS.  ONE VERSION NEAR
      THE TOP OF THE HOUR CONTAINING PRELIMINARY DATA FROM ALBUQUERQUE
      AND OTHER STATIONS.  A FINAL VERSION WITH ADDITIONAL DATA IS
      ISSUED ABOUT 10 MINUTES AFTER THE HOUR.

NMZ501-503-504-510>518-181400-
NORTHWEST PLATEAU/NORTHCENTRAL MOUNTAINS

CITY           SKY/WX    TMP DP  RH WIND       PRES   REMARKS
FARMINGTON     CLEAR     52  45  77 E7        30.09R
LOS ALAMOS     PTCLDY    54  44  70 CALM      30.19S
SANTA FE       PTCLDY    50  44  80 N13       30.13S
TAOS           PTCLDY    39  36  87 N6        30.20S WCI  35
ANGEL FIRE     FOG       27  26  93 CALM      30.30S VSB 3/4

$$
NMZ402-403-502-505>509-181400-
WESTCENTRAL MOUNTAINS/SOUTHWEST MOUNTAINS

CITY           SKY/WX    TMP DP  RH WIND       PRES   REMARKS
GALLUP         CLEAR     46  40  79 CALM      30.13S
GRANTS         CLEAR     45  45 100 NW7       30.16S
SILVER CITY    RAIN      59  59 100 CALM      30.06R

$$
NMZ407-409-411-412-181400-
SOUTHERN DESERTS

CITY           SKY/WX    TMP DP  RH WIND       PRES   REMARKS
LORDSBURG      LGT RAIN  61  61 100 SE3       29.96R
DEMING         RAIN      63  62  97 E9        29.98S FOG
LAS CRUCES     CLOUDY    64  63  96 S5        30.01R
HOLLOMAN AFB   MOCLDY    66  66 100 CALM      29.99S
ALAMOGORDO     CLOUDY    64  64 100 SW7       30.00S
T OR C         CLOUDY    63  60  90 N5        30.03R

$$
NMZ519>523-181400-
CENTRAL VALLEYS/CENTRAL HIGHLANDS

CITY           SKY/WX    TMP DP  RH WIND       PRES   REMARKS
ALBUQUERQUE    PTCLDY    59  50  72 N9        30.08S
DOUBLE EAGLE   PTCLDY    52  48  87 NW6       30.11R
MORIARTY ARPT  FAIR      46  44  93 CALM      30.14S
CLINES CORNERS MOCLDY    55  47  74 NE7       30.15S
BELEN          FAIR      58  58  97 NE3       30.07S
SOCORRO        RAIN      64  62  96 S3        30.05S

$$
NMZ524>526-539-540-181400-
SOUTHCENTRAL MOUNTAINS

CITY           SKY/WX    TMP DP  RH WIND       PRES   REMARKS
RUIDOSO        CLOUDY    57  55  94 CALM      30.18S

$$
NMZ527>531-181400-
NORTHEAST HIGHLANDS/NORTHEAST PLAINS

CITY           SKY/WX    TMP DP  RH WIND       PRES   REMARKS
LAS VEGAS      PTCLDY    46  39  76 N7        30.16S
RATON          CLEAR     44  41  89 NE7       30.12S
CLAYTON        CLEAR     59  50  72 W10       30.04R

$$
NMZ532>537-181400-
EASTCENTRAL PLAINS

CITY           SKY/WX    TMP DP  RH WIND       PRES   REMARKS
TUCUMCARI      MOCLDY    61  58  90 NW3       30.00S
CANNON AFB     CLOUDY    64  63  94 NE6       30.03R
CLOVIS AIRPORT   N/A     64  63  94 NE3       30.05R

$$
NMZ028-029-538-181400-
SOUTHEAST PLAINS

CITY           SKY/WX    TMP DP  RH WIND       PRES   REMARKS
ROSWELL        LGT RAIN  66  64  93 S7        29.99R
CARLSBAD       RAIN      66  66 100 SW7       29.97S FOG
HOBBS          LGT RAIN  64  64 100 W5        30.03R


$$



USA.gov is the U.S. government's official web portal to all federal, state and local government web resources and services.